Hourly Data Report for September 15, 2006

TORONTO CITY
ONTARIO

43°40'00.000" N
79°24'00.000" W
112.50 m
6158355
71508
XTO

Download Data

Hourly Data (September 2006)
Hourly Data Report for September 15, 2006
TIME
LST
Temp Definition
°C
Dew Point Definition
°C
Rel Hum Definition
%
Precip. Amount Definition
mm

Wind Dir Definition
10's deg

Wind Spd Definition
km/h
Visibility Definition
km
Stn Press Definition
kPa
Hmdx Definition


Wind Chill Definition


Weather Definition


00:00 17.0 16.8 99   LegendMM LegendMM   100.47     LegendNANA
01:00 17.0 16.8 99   LegendMM LegendMM   100.46     LegendNANA
02:00 16.7 16.4 98   LegendMM LegendMM   100.47     LegendNANA
03:00 16.5 16.1 97   LegendMM LegendMM   100.49     LegendNANA
04:00 16.4 15.9 97   LegendMM LegendMM   100.52     LegendNANA
05:00 16.4 15.8 96   LegendMM LegendMM   100.58     LegendNANA
06:00 16.3 15.6 96   LegendMM LegendMM   100.64     LegendNANA
07:00 16.9 16.1 95   LegendMM LegendMM   100.70     LegendNANA
08:00 17.3 15.9 91   LegendMM LegendMM   100.75     LegendNANA
09:00 18.2 16.3 89   LegendMM LegendMM   100.77     LegendNANA
10:00 19.0 16.1 83   LegendMM LegendMM   100.79     LegendNANA
11:00 19.6 15.8 79   LegendMM LegendMM   100.79     LegendNANA
12:00 19.6 15.7 78   LegendMM LegendMM   100.80     LegendNANA
13:00 20.3 15.9 76   LegendMM LegendMM   100.78 25   LegendNANA
14:00 20.8 15.6 72   LegendMM LegendMM   100.77 25   LegendNANA
15:00 20.4 15.8 75   LegendMM LegendMM   100.76 25   LegendNANA
16:00 20.4 16.0 76   LegendMM LegendMM   100.77 25   LegendNANA
17:00 19.4 17.1 87   LegendMM LegendMM   100.78     LegendNANA
18:00 18.9 16.6 87   LegendMM LegendMM   100.75     LegendNANA
19:00 19.0 16.5 85   LegendMM LegendMM   100.77     LegendNANA
20:00 18.9 16.8 88   LegendMM LegendMM   100.84     LegendNANA
21:00 18.6 16.9 90   LegendMM LegendMM   100.84     LegendNANA
22:00 18.7 17.3 92   LegendMM LegendMM   100.85     LegendNANA
23:00 18.5 17.4 93   LegendMM LegendMM   100.85     LegendNANA

Notes on Data Quality.

Legend

  • E = Estimated
  • M = Missing
  • NA = Not Available*
  • [empty] = Indicates an unobserved value
Date modified: